This is the latest recevied weather packets stored in our database for station/object KC1TWD. If no packets are shown the sender has not sent any weather packets the latest 10 day(s).
| Time | Temp. | Humidity | Pressure | Rain* | Wind** | Luminosity | Snow |
|---|---|---|---|---|---|---|---|
| 1778011989 | 28.89° C | 34% | 1003.3 hPa | 0 mm | - | - | - |
| 1778011687 | 28.33° C | 34% | 1003.4 hPa | 0 mm | - | - | - |
| 1778011384 | 28.33° C | 35% | 1003.6 hPa | 0 mm | - | - | - |
| 1778011079 | 27.78° C | 36% | 1003.7 hPa | 0 mm | - | - | - |
| 1778010777 | 27.78° C | 35% | 1003.6 hPa | 0 mm | - | - | - |
| 1778010474 | 27.78° C | 34% | 1003.7 hPa | 0 mm | - | - | - |
| 1778010170 | 28.33° C | 35% | 1003.9 hPa | 0 mm | - | - | - |
| 1778009866 | 28.89° C | 35% | 1003.7 hPa | 0 mm | - | - | - |
| 1778009564 | 28.89° C | 33% | 1003.8 hPa | 0 mm | - | - | - |
| 1778009262 | 29.44° C | 35% | 1003.8 hPa | 0 mm | - | - | - |
| 1778008959 | 28.33° C | 35% | 1003.9 hPa | 0 mm | - | - | - |
| 1778008657 | 27.78° C | 36% | 1003.9 hPa | 0 mm | - | - | - |
| 1778008355 | 27.78° C | 34% | 1003.9 hPa | 0 mm | - | - | - |
| 1778008051 | 28.33° C | 35% | 1004 hPa | 0 mm | - | - | - |
| 1778007751 | 28.89° C | 34% | 1003.9 hPa | 0 mm | - | - | - |
| 1778007448 | 28.89° C | 33% | 1004 hPa | 0 mm | - | - | - |
| 1778007145 | 28.33° C | 34% | 1004.1 hPa | 0 mm | - | - | - |
| 1778006840 | 27.78° C | 34% | 1004.1 hPa | 0 mm | - | - | - |
| 1778006538 | 28.33° C | 34% | 1004.5 hPa | 0 mm | - | - | - |
| 1778006235 | 28.89° C | 35% | 1004.4 hPa | 0 mm | - | - | - |
| 1778005933 | 28.33° C | 34% | 1004.7 hPa | 0 mm | - | - | - |
| 1778005628 | 27.78° C | 35% | 1004.8 hPa | 0 mm | - | - | - |
| 1778005326 | 28.33° C | 34% | 1004.9 hPa | 0 mm | - | - | - |
| 1778005022 | 27.78° C | 34% | 1004.8 hPa | 0 mm | - | - | - |
| 1778004720 | 27.78° C | 35% | 1005.1 hPa | 0 mm | - | - | - |
* Rain latest hour (hover to see other rain measurements)
** Current wind speed in m/s (hover to see current wind gust speed)